RYR4786 LIME-LIRI

Flight info

Callsign RYR4786
Flight time 1h 9m
Altitude 35000
Route LOGDI DCT OLNUK DCT LOMED DCT VERUN DCT ALAXI DCT TEA/N0338F190 M736 SOR
Aircraft B738/M-SDE3FGILRWY/SB1

Departure

Time 2026-04-28 18:07
Airport Il Caravaggio International Airport (LIME)

Arrival

Time 2026-04-28 19:16
Airport Salerno Costa d'Amalfi Airport (LIRI)
Time Latitude Longitude Altitude Speed Heading
2026-04-28 17:21 45.66673 9.69862 786 ft 0 kts 195°
2026-04-28 17:27 45.66672 9.69862 786 ft 0 kts 195°
2026-04-28 17:56 45.66682 9.69866 786 ft 4 kts 195°
2026-04-28 17:56 45.66708 9.69876 786 ft 4 kts 195°
2026-04-28 17:56 45.66733 9.69885 786 ft 4 kts 191°
2026-04-28 17:57 45.66756 9.69883 786 ft 4 kts 138°
2026-04-28 17:57 45.66770 9.69853 786 ft 4 kts 107°
2026-04-28 17:57 45.66771 9.69845 786 ft 0 kts 105°
2026-04-28 17:59 45.66769 9.69859 786 ft 4 kts 105°
2026-04-28 17:59 45.66751 9.69954 786 ft 14 kts 105°
2026-04-28 17:59 45.66722 9.70103 786 ft 17 kts 105°
2026-04-28 17:59 45.66693 9.70261 786 ft 16 kts 105°
2026-04-28 18:00 45.66664 9.70413 786 ft 16 kts 105°
2026-04-28 18:00 45.66637 9.70559 786 ft 15 kts 105°
2026-04-28 18:00 45.66611 9.70699 786 ft 14 kts 103°
2026-04-28 18:00 45.66587 9.70834 786 ft 14 kts 105°
2026-04-28 18:01 45.66564 9.70962 786 ft 13 kts 104°
2026-04-28 18:01 45.66541 9.71085 786 ft 13 kts 109°
2026-04-28 18:01 45.66508 9.71198 786 ft 12 kts 111°
2026-04-28 18:01 45.66482 9.71313 786 ft 12 kts 104°
2026-04-28 18:02 45.66461 9.71427 786 ft 12 kts 104°
2026-04-28 18:02 45.66443 9.71539 786 ft 11 kts 99°
2026-04-28 18:02 45.66448 9.71649 786 ft 11 kts 81°
2026-04-28 18:02 45.66460 9.71757 786 ft 11 kts 81°
2026-04-28 18:03 45.66458 9.71861 786 ft 10 kts 100°
2026-04-28 18:03 45.66447 9.71962 786 ft 10 kts 99°
2026-04-28 18:03 45.66436 9.72060 786 ft 10 kts 101°
2026-04-28 18:03 45.66420 9.72155 786 ft 10 kts 104°
2026-04-28 18:04 45.66403 9.72245 786 ft 9 kts 104°
2026-04-28 18:04 45.66387 9.72334 786 ft 9 kts 104°
2026-04-28 18:04 45.66373 9.72421 786 ft 9 kts 93°
2026-04-28 18:04 45.66416 9.72463 786 ft 9 kts 348°
2026-04-28 18:05 45.66462 9.72411 786 ft 9 kts 298°
2026-04-28 18:05 45.66474 9.72358 786 ft 8 kts 283°
2026-04-28 18:05 45.66480 9.72324 786 ft 0 kts 285°
2026-04-28 18:06 45.66504 9.72201 786 ft 34 kts 284°
2026-04-28 18:06 45.66627 9.71540 786 ft 102 kts 285°
2026-04-28 18:06 45.66859 9.70283 788 ft 157 kts 285°
2026-04-28 18:06 45.67157 9.68643 1148 ft 172 kts 284°
2026-04-28 18:07 45.67438 9.66995 1825 ft 169 kts 285°
2026-04-28 18:07 45.67745 9.65369 2526 ft 169 kts 285°
2026-04-28 18:07 45.68059 9.63741 3184 ft 171 kts 284°
2026-04-28 18:07 45.68021 9.61972 3505 ft 194 kts 243°
2026-04-28 18:08 45.67089 9.60505 3754 ft 216 kts 208°
2026-04-28 18:08 45.65647 9.59612 3948 ft 237 kts 202°
2026-04-28 18:08 45.64100 9.58656 4488 ft 246 kts 203°
2026-04-28 18:08 45.62530 9.57676 5391 ft 246 kts 203°
2026-04-28 18:09 45.60960 9.56693 6157 ft 248 kts 203°
2026-04-28 18:09 45.59356 9.55760 6895 ft 250 kts 194°
2026-04-28 18:09 45.57618 9.55546 7644 ft 252 kts 181°
2026-04-28 18:09 45.55855 9.55472 8425 ft 254 kts 183°
2026-04-28 18:10 45.54080 9.55354 9203 ft 257 kts 184°
2026-04-28 18:10 45.52308 9.55227 9981 ft 260 kts 184°
2026-04-28 18:10 45.50486 9.55093 10728 ft 263 kts 185°
2026-04-28 18:10 45.48644 9.55128 11465 ft 269 kts 169°
2026-04-28 18:11 45.46883 9.56094 12253 ft 274 kts 158°
2026-04-28 18:11 45.45127 9.57187 13002 ft 278 kts 159°
2026-04-28 18:11 45.43335 9.58280 13785 ft 282 kts 160°
2026-04-28 18:11 45.41519 9.59378 14496 ft 286 kts 160°
2026-04-28 18:12 45.39696 9.60475 15197 ft 291 kts 161°
2026-04-28 18:12 45.37820 9.61602 15913 ft 295 kts 161°
2026-04-28 18:12 45.35927 9.62828 16544 ft 306 kts 155°
2026-04-28 18:12 45.34028 9.64452 16717 ft 332 kts 150°
2026-04-28 18:13 45.32036 9.66339 16892 ft 356 kts 149°
2026-04-28 18:13 45.29937 9.68365 17231 ft 372 kts 149°
2026-04-28 18:13 45.27771 9.70441 17826 ft 380 kts 149°
2026-04-28 18:13 45.25557 9.72537 18480 ft 385 kts 150°
2026-04-28 18:14 45.23347 9.74607 19131 ft 387 kts 150°
2026-04-28 18:14 45.21088 9.76704 19830 ft 389 kts 150°
2026-04-28 18:14 45.18812 9.78806 20480 ft 392 kts 150°
2026-04-28 18:14 45.16513 9.80921 21105 ft 396 kts 150°
2026-04-28 18:15 45.14192 9.83052 21750 ft 398 kts 150°
2026-04-28 18:15 45.11864 9.85189 22414 ft 401 kts 150°
2026-04-28 18:15 45.09510 9.87347 23033 ft 405 kts 150°
2026-04-28 18:15 45.07136 9.89522 23617 ft 408 kts 150°
2026-04-28 18:16 45.04740 9.91716 24104 ft 412 kts 150°
2026-04-28 18:16 45.02361 9.93891 24587 ft 415 kts 150°
2026-04-28 18:16 44.99926 9.96113 25040 ft 418 kts 151°
2026-04-28 18:16 44.97437 9.98261 25514 ft 420 kts 153°
2026-04-28 18:17 44.94900 10.00340 25983 ft 423 kts 154°
2026-04-28 18:17 44.92329 10.02416 26437 ft 427 kts 153°
2026-04-28 18:17 44.89745 10.04506 26902 ft 430 kts 153°
2026-04-28 18:17 44.87143 10.06624 27340 ft 433 kts 153°
2026-04-28 18:18 44.84530 10.08762 27772 ft 436 kts 153°
2026-04-28 18:18 44.81930 10.10896 28185 ft 440 kts 153°
2026-04-28 18:18 44.79281 10.13072 28603 ft 442 kts 153°
2026-04-28 18:18 44.77481 10.14550 28883 ft 444 kts 153°
2026-04-28 18:19 44.73926 10.17465 29421 ft 449 kts 153°
2026-04-28 18:19 44.71228 10.19671 29806 ft 451 kts 153°
2026-04-28 18:19 44.68550 10.21860 30242 ft 452 kts 153°
2026-04-28 18:19 44.65837 10.24080 30735 ft 450 kts 153°
2026-04-28 18:20 44.63138 10.26291 31225 ft 449 kts 153°
2026-04-28 18:20 44.60445 10.28499 31649 ft 449 kts 153°
2026-04-28 18:20 44.57783 10.30687 32058 ft 450 kts 153°
2026-04-28 18:20 44.55085 10.32909 32522 ft 449 kts 153°
2026-04-28 18:21 44.52396 10.35130 32960 ft 449 kts 153°
2026-04-28 18:21 44.49707 10.37353 33386 ft 448 kts 153°
2026-04-28 18:21 44.47023 10.39574 33783 ft 448 kts 153°
2026-04-28 18:21 44.44348 10.41797 34157 ft 448 kts 152°
2026-04-28 18:22 44.41833 10.44409 34481 ft 453 kts 140°
2026-04-28 18:22 44.39592 10.47512 34844 ft 454 kts 134°
2026-04-28 18:22 44.37683 10.51044 35146 ft 458 kts 123°
2026-04-28 18:22 44.36058 10.54839 35135 ft 463 kts 122°
2026-04-28 18:23 44.32326 10.62118 35160 ft 457 kts 133°
2026-04-28 18:23 44.27920 10.68388 35173 ft 451 kts 139°
2026-04-28 18:24 44.24063 10.73273 35184 ft 451 kts 140°
2026-04-28 18:24 44.18639 10.80076 35177 ft 452 kts 140°
2026-04-28 18:25 44.13985 10.85978 35152 ft 453 kts 140°
2026-04-28 18:26 44.06985 10.94872 35080 ft 455 kts 140°
2026-04-28 18:26 44.02366 11.00720 35075 ft 455 kts 140°
2026-04-28 18:27 43.97707 11.06555 35030 ft 455 kts 140°
2026-04-28 18:27 43.92995 11.12421 35029 ft 455 kts 140°
2026-04-28 18:28 43.88285 11.18278 35016 ft 454 kts 140°
2026-04-28 18:28 43.83589 11.24111 35019 ft 453 kts 140°
2026-04-28 18:29 43.81027 11.27288 35004 ft 451 kts 140°
2026-04-28 18:29 43.77838 11.31237 35014 ft 450 kts 140°
2026-04-28 18:30 43.74298 11.35618 35017 ft 449 kts 140°
2026-04-28 18:30 43.69640 11.41366 35006 ft 449 kts 140°
2026-04-28 18:31 43.65015 11.47062 35016 ft 448 kts 140°
2026-04-28 18:31 43.60356 11.52786 35006 ft 448 kts 140°
2026-04-28 18:32 43.55695 11.58503 35013 ft 449 kts 140°
2026-04-28 18:32 43.51018 11.64226 35015 ft 450 kts 140°
2026-04-28 18:33 43.46336 11.69942 35020 ft 450 kts 140°
2026-04-28 18:33 43.41680 11.75616 34997 ft 450 kts 140°
2026-04-28 18:34 43.36988 11.81322 35018 ft 450 kts 140°
2026-04-28 18:34 43.32295 11.87018 35015 ft 450 kts 140°
2026-04-28 18:35 43.27579 11.92674 35010 ft 449 kts 144°
2026-04-28 18:35 43.22509 11.97650 35021 ft 447 kts 148°
2026-04-28 18:36 43.17427 12.02336 35011 ft 447 kts 148°
2026-04-28 18:36 43.12278 12.07121 35013 ft 447 kts 148°
2026-04-28 18:37 43.07153 12.11936 35013 ft 447 kts 148°
2026-04-28 18:37 43.02037 12.16758 35016 ft 447 kts 148°
2026-04-28 18:38 42.96959 12.21539 35008 ft 446 kts 148°
2026-04-28 18:38 42.91842 12.26345 35015 ft 446 kts 148°
2026-04-28 18:39 42.86730 12.31136 35018 ft 446 kts 148°
2026-04-28 18:39 42.81610 12.35922 35012 ft 446 kts 148°
2026-04-28 18:40 42.76500 12.40691 35025 ft 445 kts 148°
2026-04-28 18:40 42.71423 12.45419 35016 ft 445 kts 148°
2026-04-28 18:41 42.67144 12.49396 35026 ft 445 kts 148°
2026-04-28 18:41 42.61202 12.54908 35039 ft 445 kts 148°
2026-04-28 18:42 42.56083 12.59651 35052 ft 445 kts 148°
2026-04-28 18:42 42.51832 12.63596 35054 ft 446 kts 148°
2026-04-28 18:43 42.45876 12.69092 35073 ft 446 kts 148°
2026-04-28 18:43 42.41579 12.73044 35070 ft 446 kts 148°
2026-04-28 18:44 42.36491 12.77715 35079 ft 445 kts 148°
2026-04-28 18:44 42.28798 12.84762 35036 ft 445 kts 148°
2026-04-28 18:45 42.22839 12.90207 35064 ft 445 kts 148°
2026-04-28 18:45 42.18542 12.94125 35039 ft 445 kts 148°
2026-04-28 18:46 42.13438 12.98770 35044 ft 446 kts 148°
2026-04-28 18:46 42.08350 13.03392 35057 ft 445 kts 148°
2026-04-28 18:47 42.05784 13.05720 34905 ft 445 kts 148°
2026-04-28 18:47 42.03224 13.08040 34587 ft 440 kts 148°
2026-04-28 18:47 42.00699 13.10327 34226 ft 436 kts 147°
2026-04-28 18:47 41.98198 13.12589 33846 ft 433 kts 147°
2026-04-28 18:48 41.95707 13.14840 33438 ft 430 kts 147°
2026-04-28 18:48 41.93269 13.17040 33055 ft 427 kts 147°
2026-04-28 18:48 41.90814 13.19254 32674 ft 423 kts 147°
2026-04-28 18:48 41.88376 13.21450 32305 ft 420 kts 148°
2026-04-28 18:49 41.85956 13.23628 31940 ft 417 kts 148°
2026-04-28 18:49 41.84361 13.25062 31692 ft 416 kts 148°
2026-04-28 18:49 41.81162 13.27934 31221 ft 412 kts 147°
2026-04-28 18:49 41.78791 13.30062 30862 ft 409 kts 147°
2026-04-28 18:50 41.76433 13.32178 30514 ft 406 kts 148°
2026-04-28 18:50 41.74137 13.34267 30172 ft 404 kts 144°
2026-04-28 18:50 41.72031 13.36738 29894 ft 400 kts 134°
2026-04-28 18:50 41.70149 13.39448 29551 ft 396 kts 133°
2026-04-28 18:51 41.68298 13.42155 29220 ft 392 kts 133°
2026-04-28 18:51 41.66461 13.44838 28833 ft 389 kts 133°
2026-04-28 18:51 41.64639 13.47484 28482 ft 386 kts 133°
2026-04-28 18:51 41.62815 13.50114 28113 ft 384 kts 134°
2026-04-28 18:52 41.61004 13.52715 27743 ft 381 kts 134°
2026-04-28 18:52 41.59201 13.55295 27394 ft 378 kts 133°
2026-04-28 18:52 41.57413 13.57847 27043 ft 375 kts 133°
2026-04-28 18:52 41.55656 13.60352 26700 ft 373 kts 133°
2026-04-28 18:53 41.53888 13.62871 26346 ft 371 kts 133°
2026-04-28 18:53 41.52128 13.65374 26000 ft 369 kts 133°
2026-04-28 18:53 41.50376 13.67865 25657 ft 367 kts 133°
2026-04-28 18:53 41.48636 13.70337 25315 ft 365 kts 133°
2026-04-28 18:54 41.46902 13.72799 24972 ft 363 kts 134°
2026-04-28 18:54 41.45177 13.75245 24633 ft 361 kts 134°
2026-04-28 18:54 41.43458 13.77682 24295 ft 360 kts 134°
2026-04-28 18:54 41.41747 13.80104 23959 ft 359 kts 134°
2026-04-28 18:55 41.40063 13.82487 23621 ft 357 kts 134°
2026-04-28 18:55 41.38360 13.84893 23206 ft 356 kts 134°
2026-04-28 18:55 41.36665 13.87287 22847 ft 354 kts 134°
2026-04-28 18:55 41.34979 13.89667 22489 ft 352 kts 133°
2026-04-28 18:56 41.33307 13.92025 22168 ft 349 kts 133°
2026-04-28 18:56 41.31648 13.94363 21836 ft 347 kts 134°
2026-04-28 18:56 41.29865 13.96500 21478 ft 344 kts 145°
2026-04-28 18:56 41.27837 13.98110 21328 ft 334 kts 156°
2026-04-28 18:57 41.25700 13.99276 21052 ft 330 kts 160°
2026-04-28 18:57 41.23636 14.00326 20746 ft 329 kts 160°
2026-04-28 18:57 41.21501 14.01397 20431 ft 327 kts 160°
2026-04-28 18:57 41.19378 14.02464 20109 ft 326 kts 160°
2026-04-28 18:58 41.17263 14.03532 19791 ft 325 kts 160°
2026-04-28 18:58 41.15155 14.04602 19474 ft 323 kts 160°
2026-04-28 18:58 41.13061 14.05668 19164 ft 323 kts 160°
2026-04-28 18:58 41.10967 14.06736 18838 ft 322 kts 160°
2026-04-28 18:59 41.08884 14.07799 18520 ft 321 kts 160°
2026-04-28 18:59 41.06804 14.08861 18182 ft 320 kts 160°
2026-04-28 18:59 41.04731 14.09920 17824 ft 319 kts 160°
2026-04-28 18:59 41.02695 14.10959 17492 ft 317 kts 160°
2026-04-28 19:00 41.00642 14.12007 17161 ft 315 kts 160°
2026-04-28 19:00 40.98608 14.13044 16832 ft 314 kts 160°
2026-04-28 19:00 40.96579 14.14078 16530 ft 312 kts 160°
2026-04-28 19:00 40.94558 14.15107 16217 ft 310 kts 160°
2026-04-28 19:01 40.92549 14.16129 15908 ft 309 kts 160°
2026-04-28 19:01 40.90549 14.17147 15599 ft 307 kts 160°
2026-04-28 19:01 40.88557 14.18159 15287 ft 306 kts 160°
2026-04-28 19:01 40.86599 14.19154 14987 ft 305 kts 160°
2026-04-28 19:02 40.84623 14.20157 14677 ft 304 kts 160°
2026-04-28 19:02 40.82652 14.21156 14378 ft 303 kts 160°
2026-04-28 19:02 40.80687 14.22153 14067 ft 303 kts 160°
2026-04-28 19:02 40.78724 14.23147 13748 ft 302 kts 160°
2026-04-28 19:03 40.76765 14.24138 13397 ft 301 kts 160°
2026-04-28 19:03 40.74816 14.25124 13083 ft 299 kts 160°
2026-04-28 19:03 40.72887 14.26141 12759 ft 298 kts 155°
2026-04-28 19:03 40.71089 14.27466 12352 ft 294 kts 149°
2026-04-28 19:04 40.69392 14.28888 11876 ft 292 kts 148°
2026-04-28 19:04 40.67701 14.30330 11462 ft 287 kts 148°
2026-04-28 19:04 40.66028 14.31743 11002 ft 285 kts 148°
2026-04-28 19:04 40.64348 14.33142 10478 ft 286 kts 148°
2026-04-28 19:05 40.62671 14.34523 10053 ft 283 kts 149°
2026-04-28 19:05 40.61007 14.35883 9614 ft 281 kts 149°
2026-04-28 19:05 40.59356 14.37226 9176 ft 277 kts 149°
2026-04-28 19:05 40.57723 14.38549 8722 ft 275 kts 149°
2026-04-28 19:06 40.56100 14.39860 8274 ft 272 kts 149°
2026-04-28 19:06 40.54495 14.41156 7838 ft 270 kts 149°
2026-04-28 19:06 40.52901 14.42441 7398 ft 267 kts 149°
2026-04-28 19:06 40.51346 14.43693 7024 ft 263 kts 149°
2026-04-28 19:07 40.49790 14.44944 6747 ft 262 kts 149°
2026-04-28 19:07 40.48241 14.46190 6476 ft 261 kts 149°
2026-04-28 19:07 40.46696 14.47431 6194 ft 260 kts 149°
2026-04-28 19:07 40.45155 14.48670 6046 ft 259 kts 149°
2026-04-28 19:08 40.43613 14.49908 6006 ft 259 kts 149°
2026-04-28 19:08 40.42108 14.51117 5984 ft 248 kts 148°
2026-04-28 19:08 40.40802 14.52478 5969 ft 233 kts 126°
2026-04-28 19:08 40.40236 14.54355 5986 ft 217 kts 96°
2026-04-28 19:09 40.40343 14.56268 5996 ft 211 kts 75°
2026-04-28 19:09 40.40950 14.57967 5869 ft 203 kts 54°
2026-04-28 19:09 40.41828 14.59406 5498 ft 203 kts 50°
2026-04-28 19:09 40.42750 14.60812 5101 ft 203 kts 49°
2026-04-28 19:10 40.43673 14.62213 4739 ft 202 kts 50°
2026-04-28 19:10 40.44584 14.63613 4376 ft 201 kts 50°
2026-04-28 19:10 40.45478 14.64994 4194 ft 195 kts 50°
2026-04-28 19:10 40.46341 14.66332 4062 ft 187 kts 50°
2026-04-28 19:11 40.47156 14.67598 3913 ft 175 kts 50°
2026-04-28 19:11 40.47897 14.68751 3795 ft 160 kts 50°
2026-04-28 19:11 40.48616 14.69868 3608 ft 159 kts 50°
2026-04-28 19:11 40.49321 14.70964 3442 ft 156 kts 50°
2026-04-28 19:12 40.50018 14.72048 3285 ft 155 kts 50°
2026-04-28 19:12 40.50714 14.73137 3131 ft 156 kts 50°
2026-04-28 19:12 40.51412 14.74229 2969 ft 156 kts 50°
2026-04-28 19:12 40.52108 14.75316 2806 ft 155 kts 50°
2026-04-28 19:13 40.52801 14.76398 2649 ft 154 kts 50°
2026-04-28 19:13 40.53481 14.77460 2507 ft 153 kts 50°
2026-04-28 19:13 40.54172 14.78538 2352 ft 156 kts 50°
2026-04-28 19:13 40.54865 14.79628 2147 ft 154 kts 50°
2026-04-28 19:14 40.55547 14.80695 1943 ft 151 kts 49°
2026-04-28 19:14 40.56211 14.81734 1722 ft 147 kts 49°
2026-04-28 19:14 40.56885 14.82763 1382 ft 148 kts 48°
2026-04-28 19:14 40.57541 14.83778 1100 ft 144 kts 49°
2026-04-28 19:15 40.58165 14.84790 930 ft 142 kts 50°
2026-04-28 19:15 40.58772 14.85829 817 ft 145 kts 51°
2026-04-28 19:15 40.59401 14.86888 661 ft 148 kts 51°
2026-04-28 19:15 40.59822 14.87605 505 ft 150 kts 50°
2026-04-28 19:16 40.60660 14.89010 219 ft 145 kts 51°
2026-04-28 19:16 40.61279 14.90046 92 ft 143 kts 51°
2026-04-28 19:16 40.61707 14.90775 86 ft 47 kts 52°
2026-04-28 19:16 40.61756 14.90856 87 ft 1 kts 51°
2026-04-28 19:17 40.61793 14.90918 89 ft 13 kts 51°
2026-04-28 19:17 40.61852 14.91016 88 ft 15 kts 52°
2026-04-28 19:17 40.61927 14.91142 87 ft 19 kts 52°
2026-04-28 19:17 40.62016 14.91292 84 ft 23 kts 52°
2026-04-28 19:18 40.62102 14.91469 87 ft 23 kts 68°
2026-04-28 19:18 40.62120 14.91612 84 ft 14 kts 84°
2026-04-28 19:18 40.62130 14.91733 87 ft 6 kts 91°
2026-04-28 19:18 40.62115 14.91785 84 ft 6 kts 116°
2026-04-28 19:19 40.62117 14.91839 85 ft 6 kts 63°
2026-04-28 19:19 40.62119 14.91891 83 ft 7 kts 126°
2026-04-28 19:19 40.62086 14.91932 84 ft 7 kts 141°
2026-04-28 19:19 40.62076 14.91943 83 ft 0 kts 140°
2026-04-28 19:20 40.62074 14.91945 83 ft 0 kts 140°
2026-04-28 19:20 40.62071 14.91948 83 ft 0 kts 140°
2026-04-28 19:20 40.62069 14.91950 83 ft 0 kts 140°
2026-04-28 19:20 40.62068 14.91951 87 ft 0 kts 140°